Вернуться в каталог

CZ-6A DEB

АктивенPO
NORAD 64663·DEBRIS·🇨🇳 China

Запущен Aug 6, 2024 с Taiyuan Satellite Launch Center

Loading…

Ближайшие Пролёты (ближайшие 24 часа)

TLE

СвежийSource: Space-Track

Эпоха: Sep 14, 2026, 10:43 UTC

1 64663U 24140AFD 26257.44656079  .00004116  00000-0  72981-3 0  9991
2 64663  89.0431 263.4447 0085836 299.7892  59.4806 14.64710278100359

Отслеживайте CZ-6A DEB в реальном времени с AllMySat

Download on the App Store